Total_Precipitation_Accumulation
1.67 1.77 1.88 1.89 1.95 2.04 2.18 2.29 2.35 2.20 1.97 1.82 1.81 1.80 1.81 1.87 2.03 1.67 1.60 1.82 1.70 1.59 1.52 1.43 1.37 1.40 1.44 1.47 1.52 1.62 1.71 1.77 1.84 1.90 1.99 2.17 2.29 2.36
1.41 1.49 1.59 1.67 1.77 1.87 1.99 2.09 2.15 2.12 2.02 1.81 1.73 1.73 1.73 1.66 1.82 1.49 1.49 1.68 1.57 1.48 1.39 1.34 1.27 1.28 1.30 1.34 1.38 1.39 1.41 1.42 1.44 1.46 1.49 1.57 1.74 1.95
1.41 1.45 1.50 1.56 1.64 1.67 1.69 1.75 1.88 2.00 2.09 1.99 1.80 1.76 1.75 1.69 1.60 1.40 1.30 1.28 1.31 1.38 1.33 1.30 1.22 1.17 1.18 1.18 1.14 1.13 1.12 1.15 1.19 1.21 1.21 1.27 1.34 1.44
1.29 1.35 1.35 1.34 1.40 1.51 1.58 1.57 1.62 1.73 1.86 1.91 1.79 1.65 1.62 1.61 1.55 1.47 1.25 1.12 1.11 1.16 1.10 1.05 1.06 1.03 0.99 1.00 1.01 0.97 0.94 0.96 1.00 1.04 1.05 1.08 1.14 1.22
1.13 1.14 1.15 1.17 1.17 1.22 1.29 1.36 1.37 1.39 1.54 1.59 1.57 1.52 1.47 1.41 1.45 1.44 1.31 1.33 1.12 1.07 0.98 0.90 0.87 0.86 0.82 0.80 0.83 0.89 0.87 0.81 0.78 0.82 0.86 0.90 0.94 0.99
0.89 0.89 0.95 1.04 1.06 1.08 1.07 1.11 1.14 1.25 1.35 1.41 1.39 1.39 1.40 1.32 1.33 1.39 1.34 1.28 1.16 0.96 0.96 0.83 0.75 0.69 0.69 0.70 0.68 0.70 0.74 0.78 0.84 0.83 0.76 0.70 0.69 0.70
0.72 0.70 0.71 0.83 0.91 0.88 0.81 0.91 1.03 1.16 1.24 1.27 1.23 1.18 1.16 1.24 1.23 1.19 1.18 1.20 1.14 1.01 1.05 0.91 0.82 0.77 0.78 0.76 0.71 0.67 0.68 0.68 0.69 0.70 0.69 0.64 0.62 0.58
0.71 0.72 0.66 0.69 0.71 0.67 0.66 0.78 0.95 0.99 1.05 1.15 1.15 1.16 1.16 1.16 1.17 1.15 1.21 1.27 1.29 1.09 1.07 0.99 0.88 0.89 0.86 0.81 0.77 0.68 0.64 0.69 0.66 0.62 0.62 0.61 0.61 0.60
0.70 0.69 0.60 0.56 0.62 0.63 0.64 0.68 0.75 0.76 0.85 1.01 1.12 1.10 1.14 1.20 1.26 1.22 1.30 1.35 1.32 1.21 1.25 1.17 0.99 0.90 0.72 0.64 0.68 0.61 0.60 0.63 0.67 0.64 0.63 0.63 0.63 0.63
0.68 0.67 0.68 0.65 0.60 0.61 0.60 0.64 0.73 0.79 0.80 0.84 1.03 1.04 1.01 1.10 1.20 1.27 1.36 1.37 1.33 1.28 1.33 1.34 1.05 0.96 0.78 0.79 0.71 0.57 0.55 0.54 0.60 0.61 0.62 0.62 0.64 0.68
0.61 0.55 0.57 0.61 0.61 0.59 0.63 0.76 0.82 0.87 0.73 0.73 0.83 0.90 0.93 0.98 1.01 1.11 1.32 1.49 1.44 1.24 1.22 1.32 1.13 1.02 0.90 0.87 0.78 0.67 0.58 0.54 0.51 0.54 0.56 0.60 0.65 0.73
0.60 0.57 0.52 0.52 0.53 0.55 0.64 0.78 0.85 0.85 0.77 0.78 0.94 1.03 1.01 1.09 1.06 1.12 1.35 1.45 1.40 1.36 1.19 1.24 1.21 1.20 1.15 0.91 0.82 0.77 0.71 0.65 0.56 0.54 0.54 0.56 0.64 0.69
0.57 0.61 0.55 0.45 0.42 0.46 0.58 0.66 0.71 0.69 0.79 0.96 1.06 1.08 1.10 1.16 1.12 1.09 1.25 1.35 1.42 1.46 1.24 1.25 1.27 1.31 1.36 1.10 0.88 0.81 0.82 0.81 0.78 0.78 0.74 0.67 0.65 0.65
0.61 0.62 0.55 0.46 0.42 0.44 0.52 0.58 0.59 0.69 0.87 1.06 1.15 1.13 1.05 1.03 1.04 1.02 1.15 1.23 1.26 1.24 1.16 1.23 1.37 1.41 1.33 1.15 0.99 0.86 0.87 0.95 1.03 1.11 1.08 1.02 0.88 0.82
0.53 0.49 0.45 0.45 0.46 0.56 0.58 0.59 0.69 0.90 1.02 1.09 1.16 1.16 1.05 0.98 0.96 0.92 1.02 1.16 1.15 0.99 0.86 0.94 1.17 1.21 1.26 1.21 1.11 1.05 1.04 1.04 1.15 1.30 1.34 1.27 1.15 1.02
0.48 0.50 0.54 0.57 0.60 0.69 0.78 0.87 0.91 0.97 0.97 1.04 1.08 1.04 0.93 0.89 0.93 0.93 1.02 1.13 1.17 1.06 0.88 0.84 0.96 1.12 1.22 1.15 1.16 1.16 1.15 1.23 1.24 1.34 1.49 1.52 1.37 1.12
0.38 0.56 0.77 0.81 0.87 0.94 0.97 1.02 1.08 1.01 0.95 0.95 0.98 0.99 0.95 0.92 0.91 0.88 0.97 1.06 1.16 1.12 1.01 0.93 0.94 1.00 1.02 1.04 1.10 1.11 1.13 1.22 1.33 1.41 1.55 1.69 1.63 1.35
0.39 0.65 0.77 0.82 0.89 0.91 0.92 0.96 1.02 1.06 0.99 0.93 0.93 0.94 0.93 0.91 0.92 0.88 0.90 1.03 1.13 1.05 0.98 0.93 0.90 0.94 0.96 0.92 0.94 1.01 1.08 1.23 1.36 1.42 1.42 1.54 1.73 1.57
0.57 0.74 0.76 0.80 0.85 0.81 0.80 0.85 0.90 0.91 0.84 0.81 0.81 0.81 0.81 0.82 0.88 0.89 0.84 0.84 0.87 0.84 0.81 0.80 0.84 0.93 1.00 1.06 1.02 1.07 1.16 1.23 1.32 1.35 1.38 1.45 1.63 1.57
0.65 0.70 0.71 0.72 0.76 0.75 0.74 0.75 0.73 0.69 0.65 0.67 0.74 0.76 0.76 0.76 0.77 0.78 0.72 0.69 0.75 0.76 0.74 0.78 0.82 0.90 0.98 1.03 1.19 1.29 1.22 1.11 1.14 1.29 1.42 1.47 1.57 1.55
0.60 0.62 0.64 0.65 0.66 0.70 0.70 0.64 0.60 0.57 0.55 0.56 0.60 0.66 0.69 0.67 0.68 0.65 0.59 0.53 0.61 0.67 0.69 0.72 0.74 0.77 0.82 0.90 1.04 1.19 1.21 1.23 1.19 1.26 1.34 1.36 1.29 1.22
0.51 0.53 0.51 0.50 0.52 0.55 0.53 0.50 0.48 0.50 0.48 0.49 0.51 0.52 0.52 0.55 0.57 0.54 0.50 0.50 0.55 0.57 0.61 0.63 0.63 0.68 0.77 0.88 1.01 1.13 1.16 1.05 1.02 1.10 1.16 1.06 0.96 1.01
0.48 0.47 0.43 0.40 0.40 0.42 0.43 0.44 0.43 0.45 0.45 0.48 0.47 0.44 0.43 0.43 0.42 0.42 0.43 0.42 0.43 0.44 0.49 0.54 0.57 0.63 0.67 0.69 0.75 0.81 0.81 0.76 0.71 0.74 0.87 0.97 0.97 0.99